User: anonymous   Login
Location: Esp�n
(42.4593°N, 0.2047°W)
Time: 16:13:57
(UTC+00:00)
Language:

Cosmos 540 Rocket - Orbit

View from above orbital plane
View from above orbital plane
View from above satellite
View from above satellite

Ground track
Ground track

The orbit data is extracted from the following two-line orbital elements,

1  6324U 72104B   20228.18636304  .00000005  00000-0  93324-5 0  9995
2  6324  74.0775 125.3032 0009676 321.6708  38.3761 14.43499182502222
Epoch (UTC): 15 August 2020 04:28:21
Eccentricity: 0.0009676
inclination: 74.0775°
perigee height: 740 km
apogee height: 754 km
right ascension of ascending node: 125.3032°
argument of perigee: 321.6708°
revolutions per day: 14.43499182
mean anomaly at epoch: 38.3761°
orbit number at epoch: 50222

The dashed part of the orbit path shows where the satellite is in the earth's shadow,  

DLR